Regional Weather Roundup
Issued by NWS Portland, ME

Home | Current Version | Previous Version | Text Only | Print | Product List | Glossary On
Versions: 1 2 3 4 5 6 7 8 9 10 11 12 13 14 15 16 17 18 19 20 21 22 23 24 25 26 27 28 29 30 31 32 33 34 35 36 37 38 39 40 41 42 43 44 45 46 47 48 49 50
000
ASUS41 KGYX 262110
RWRGYX
WEATHER ROUNDUP FOR MAINE AND NEW HAMPSHIRE
NATIONAL WEATHER SERVICE GRAY ME
500 PM EDT SUN MAR 26 2017

MEZ002-005-006-010-012-015-018-020-021-024-026-027-029-262200-
MAINE

CITY           SKY/WX    TMP DP  RH WIND       PRES   REMARKS
PORTLAND       CLOUDY    34  16  47 S10       30.51S
SANFORD        CLOUDY    34  19  54 SE6       30.50S
BAR HARBOR     SUNNY     33  15  47 S14       30.49S
WISCASSET      SUNNY     35  16  45 S8        30.51S
ROCKLAND       SUNNY     32  17  54 S10       30.50F
FRYEBURG       CLOUDY    41   8  25 S8        30.43S
LEWISTONAUBURN MOSUNNY   37  14  38 SE13      30.46S
AUGUSTA        SUNNY     38  10  31 S7        30.45F
WATERVILLE     SUNNY     41   2  19 SW3       30.42F
BANGOR         MOSUNNY   37  -1  20 SE3       30.46F
GREENVILLE       N/A     34  -1  22 E9        30.35F
MILLINOCKET    SUNNY     38  -5  16 W3        30.44F
HOULTON        SUNNY     34   2  25 N7        30.42F
PRESQUE ISLE   SUNNY     32   2  27 E6        30.44F
FRENCHVILLE    SUNNY     29  -9  19 NE8       30.40F
CARIBOU        SUNNY     32   1  26 N7        30.42F
$$

NHZ002-005-008-009-011-012-014-262200-
NEW HAMPSHIRE

CITY           SKY/WX    TMP DP  RH WIND       PRES   REMARKS
PORTSMOUTH     CLOUDY    35  22  60 SE9       30.49S
ROCHESTER      CLOUDY    34  20  56 S6        30.48S
NASHUA         LGT RAIN  37  25  61 SE8       30.48S
MANCHESTER     CLOUDY    36  23  59 SE8       30.47S
CONCORD        CLOUDY    36  23  59 SE7       30.47S
LACONIA        CLOUDY    37  20  50 S8        30.45R
PLYMOUTH       CLOUDY    39  17  40 S5        30.43S
BERLIN         CLOUDY    42  11  28 S8        30.34F
WHITEFIELD     CLOUDY    43  13  29 W6        30.35S
JAFFREY        CLOUDY    37  22  54 VRB7      30.42F
KEENE          CLOUDY    38  24  57 VRB6      30.44F
LEBANON        CLOUDY    39  21  48 SW7       30.41F
MT WASHINGTON  MOSUNNY   27   1  33 W21         N/A  WCI  13
$$

VTZ005-007-008-262200-
VERMONT

CITY           SKY/WX    TMP DP  RH WIND       PRES   REMARKS
ST JOHNSBURY     N/A     40  13  33 MISG      30.36S
MONTPELIER     CLOUDY    35  20  54 S9        30.40F
BURLINGTON     CLOUDY    37  25  61 S8        30.37S
$$

MAZ007-012-024-CTZ003-RIZ002-NYZ038-NYZ072-262200-
SOUTHERN NEW ENGLAND AND NY

CITY           SKY/WX    TMP DP  RH WIND       PRES   REMARKS
BOSTON         CLOUDY    37  28  70 E12       30.50F
WORCESTER      CLOUDY    36  24  62 E9        30.41F
NANTUCKET      CLOUDY    39  28  64 E13       30.48F
PROVIDENCE     CLOUDY    40  27  59 SE12      30.47F
HARTFORD       CLOUDY    41  29  62 NW3       30.43F
ALBANY         CLOUDY    39  27  62 SE6       30.39F
NEW YORK CITY  CLOUDY    42  34  73 NE14      30.40F
$$

ANZ081-ANZ082-ANZ150-NHZ014-MEZ023>029-262200-
COASTAL MARINE OBSERVATIONS

STATION/POSITION TIME  TEMP    WIND        PRES    WAVE
                       AIR SEA DIR/SP/G            HT/PER
                 (UTC) (F)     (DEG/KT/KT) (MB)    (FT/S)
MOUNT DESERT ROC 2100   33                 1033.2F
MATINICUS ROCK   2000   33     150/  8/  9 1032.8F
ISLE OF SHOALS   2000   34     120/  8/  9 1033.0F
JEFFREYS LEDGE   2006      41                N/A     3/ 6
CASHES LEDGE BUO 2050   32 40              1033.7R   3/ 6
GEORGES BANK BUO 2050   37 41              1031.9S   4/ 6
$$

.............KEY..............
   WCI - WIND CHILL
   TC  - TEMPERATURE IN CELSIUS
   VSB - VISIBILITY IN MILES
   HX  - HEAT INDEX
   FAIR- INDICATES FEW OR NO CLOUDS BELOW 12,000 FT, WITH NO
         SIGNIFICANT WEATHER AND/OR OBSTRUCTIONS TO VISIBILITY.






USA.gov is the U.S. government's official web portal to all federal, state and local government web resources and services.